Weather History for Lincolnton, NC

Change the Weather History Date:

Tuesday, June 19, 2012

  Actual Average (KCLT) Record (KCLT)
Temperature  
Mean Temperature 74 °F 76 °F  
Max Temperature 89 °F 87 °F 102 °F (1944)
Min Temperature 60 °F 66 °F 54 °F (1965)
Degree Days  
Heating Degree Days 0 0  
Month to date heating degree days 0  
Since 1 June heating degree days 0  
Since 1 July heating degree days 3385  
Cooling Degree Days 10 11  
Month to date cooling degree days 176  
Year to date cooling degree days 339  
Since 1 June cooling degree days 176  
Growing Degree Days 24 (Base 50)    
Moisture  
Dew Point 62 °F    
Average Humidity 70    
Maximum Humidity 100    
Minimum Humidity 36    
Precipitation  
Precipitation 0.00 in 0.13 in 1.50 in (1995)
Month to date precipitation 2.48  
Year to date precipitation 19.44  
Snow  
Snow 0.00 in 0.00 in 0.00 in ()
Month to date snowfall 0.0  
Since 1 June snowfall 0.0  
Since 1 July snowfall 4.3  
Snow Depth -    
Sea Level Pressure  
Sea Level Pressure 30.16 in    
Wind  
Wind Speed 1 mph (SW)    
Max Wind Speed 6 mph    
Max Gust Speed -    
Visibility 9 miles    
Events      
T = Trace of Precipitation, MM = Missing Value Source: NWS Daily Summary

Daily Weather History Graph

Daily Weather History Graph

Search for Another Location

Airport:

Trip Planner

Search our weather history database for the weather conditions in past years. The results will help you decide how hot, cold, wet, or windy it might be!

Date:

Astronomy

Jun. 19, 2012 Rise Set
Actual Time 6:09 AM EDT 8:42 PM EDT
Civil Twilight 5:39 AM EDT 9:12 PM EDT
Nautical Twilight 5:02 AM EDT 9:50 PM EDT
Astronomical Twilight 4:21 AM EDT 10:31 PM EDT
Moon 6:11 AM EDT (6/19) 8:48 PM EDT (6/19)
Length of Visible Light 15h 33m
Length of Day
14h 33m
New Moon, 0% of the Moon is Illuminated
Jun 19
New Moon
Jun 26
First Quarter
Jul 3
Full
Jul 10
Last Quarter
Jul 19
New

Hourly Weather History & Observations

Time (EDT) Temp. Heat Index Dew Point Humidity Pressure Visibility Wind Dir Wind Speed Gust Speed Precip Events Conditions
12:15 AM 64.4 °F - 62.6 °F 94% 30.12 in 10.0 mi Calm Calm - N/A   Clear
12:35 AM 64.4 °F - 62.6 °F 94% 30.12 in 10.0 mi Calm Calm - N/A   Clear
12:55 AM 64.4 °F - 62.6 °F 94% 30.12 in 7.0 mi Calm Calm - N/A   Clear
1:15 AM 64.4 °F - 62.6 °F 94% 30.13 in 10.0 mi Calm Calm - N/A   Clear
1:35 AM 64.4 °F - 62.6 °F 94% 30.13 in 7.0 mi Calm Calm - N/A   Clear
1:55 AM 64.4 °F - 62.6 °F 94% 30.13 in 7.0 mi Calm Calm - N/A   Clear
2:15 AM 62.6 °F - 62.6 °F 100% 30.14 in 7.0 mi Calm Calm - N/A   Clear
2:35 AM 62.6 °F - 62.6 °F 100% 30.14 in 7.0 mi Calm Calm - N/A   Clear
2:55 AM 62.6 °F - 60.8 °F 94% 30.14 in 10.0 mi Calm Calm - N/A   Clear
3:15 AM 62.6 °F - 62.6 °F 100% 30.14 in 10.0 mi Calm Calm - N/A   Clear
3:35 AM 62.6 °F - 62.6 °F 100% 30.14 in 10.0 mi Calm Calm - N/A   Clear
3:55 AM 62.6 °F - 60.8 °F 94% 30.14 in 7.0 mi Calm Calm - N/A   Clear
4:15 AM 62.6 °F - 60.8 °F 94% 30.15 in 7.0 mi Calm Calm - N/A   Clear
4:35 AM 62.6 °F - 60.8 °F 94% 30.15 in 10.0 mi Calm Calm - N/A   Clear
4:55 AM 60.8 °F - 60.8 °F 100% 30.15 in 7.0 mi Calm Calm - N/A   Clear
5:15 AM 60.8 °F - 59.0 °F 94% 30.16 in 5.0 mi Calm Calm - N/A   Clear
5:35 AM 60.8 °F - 60.8 °F 100% 30.16 in 7.0 mi Calm Calm - N/A   Clear
5:55 AM 60.8 °F - 59.0 °F 94% 30.16 in 7.0 mi Calm Calm - N/A   Clear
6:15 AM 60.8 °F - 59.0 °F 94% 30.17 in 5.0 mi Calm Calm - N/A   Clear
6:35 AM 60.8 °F - 59.0 °F 94% 30.17 in 5.0 mi Calm Calm - N/A   Clear
6:55 AM 60.8 °F - 60.8 °F 100% 30.18 in 4.0 mi Calm Calm - N/A   Clear
7:15 AM 62.6 °F - 60.8 °F 94% 30.18 in 7.0 mi Calm Calm - N/A   Clear
7:35 AM 64.4 °F - 62.6 °F 94% 30.18 in 10.0 mi Calm Calm - N/A   Clear
7:55 AM 68.0 °F - 62.6 °F 83% 30.18 in 10.0 mi SW 3.5 mph - N/A   Clear
8:15 AM 69.8 °F - 62.6 °F 78% 30.19 in 10.0 mi SW 3.5 mph - N/A   Clear
8:35 AM 71.6 °F - 60.8 °F 69% 30.20 in 10.0 mi West 4.6 mph - N/A   Clear
8:55 AM 73.4 °F - 60.8 °F 65% 30.20 in 10.0 mi WSW 5.8 mph - N/A   Clear
9:15 AM 73.4 °F - 60.8 °F 65% 30.21 in 10.0 mi SW 5.8 mph - N/A   Clear
9:35 AM 73.4 °F - 60.8 °F 65% 30.21 in 10.0 mi West 5.8 mph - N/A   Clear
9:55 AM 77.0 °F - 62.6 °F 61% 30.20 in 10.0 mi WSW 3.5 mph - N/A   Clear
10:15 AM 77.0 °F - 62.6 °F 61% 30.20 in 10.0 mi SW 4.6 mph - N/A   Clear
10:35 AM 78.8 °F - 60.8 °F 54% 30.20 in 10.0 mi West 4.6 mph - N/A   Clear
10:55 AM 80.6 °F 81.5 °F 60.8 °F 51% 30.21 in 10.0 mi SW 4.6 mph - N/A   Clear
11:15 AM 82.4 °F 83.4 °F 62.6 °F 51% 30.20 in 10.0 mi SSW 4.6 mph - N/A   Clear
11:35 AM 80.6 °F 81.5 °F 60.8 °F 51% 30.20 in 10.0 mi Calm Calm - N/A   Clear
11:55 AM 82.4 °F 83.4 °F 62.6 °F 51% 30.20 in 10.0 mi Calm Calm - N/A   Clear
12:15 PM 84.2 °F 85.0 °F 62.6 °F 48% 30.20 in 10.0 mi South 3.5 mph - N/A   Clear
12:35 PM 86.0 °F 86.1 °F 60.8 °F 43% 30.20 in 10.0 mi WSW 4.6 mph - N/A   Clear
12:55 PM 86.0 °F 86.1 °F 60.8 °F 43% 30.20 in 10.0 mi SW 4.6 mph - N/A   Clear
1:15 PM 86.0 °F 86.6 °F 62.6 °F 45% 30.18 in 10.0 mi SSW 3.5 mph - N/A   Clear
1:35 PM 87.8 °F 87.6 °F 60.8 °F 40% 30.18 in 10.0 mi SSW 4.6 mph - N/A   Clear
1:55 PM 87.8 °F 87.1 °F 59.0 °F 38% 30.18 in 10.0 mi Calm Calm - N/A   Clear
2:15 PM 87.8 °F 87.6 °F 60.8 °F 40% 30.17 in 10.0 mi SE 3.5 mph - N/A   Scattered Clouds
2:35 PM 87.8 °F 87.6 °F 60.8 °F 40% 30.17 in 10.0 mi South 4.6 mph - N/A   Scattered Clouds
2:55 PM 87.8 °F 87.1 °F 59.0 °F 38% 30.17 in 10.0 mi SSE 3.5 mph - N/A   Clear
3:15 PM 87.8 °F 87.1 °F 59.0 °F 38% 30.17 in 10.0 mi Calm Calm - N/A   Clear
3:35 PM 89.6 °F 88.9 °F 59.0 °F 36% 30.16 in 10.0 mi West 4.6 mph - N/A   Clear
3:55 PM 89.6 °F 88.9 °F 59.0 °F 36% 30.16 in 10.0 mi SSE 3.5 mph - N/A   Scattered Clouds
4:15 PM 89.6 °F 88.9 °F 59.0 °F 36% 30.15 in 10.0 mi Calm Calm - N/A   Scattered Clouds
4:35 PM 89.6 °F 88.9 °F 59.0 °F 36% 30.15 in 10.0 mi Calm Calm - N/A   Clear
4:55 PM 87.8 °F 87.6 °F 60.8 °F 40% 30.14 in 10.0 mi South 4.6 mph - N/A   Clear
5:15 PM 89.6 °F 88.9 °F 59.0 °F 36% 30.14 in 10.0 mi Calm Calm - N/A   Clear
5:35 PM 89.6 °F 89.5 °F 60.8 °F 38% 30.13 in 10.0 mi SSW 3.5 mph - N/A   Clear
5:55 PM 87.8 °F 88.5 °F 62.6 °F 43% 30.13 in 10.0 mi South 4.6 mph - N/A   Scattered Clouds
6:15 PM 87.8 °F 88.5 °F 62.6 °F 43% 30.13 in 10.0 mi Calm Calm - N/A   Scattered Clouds
6:35 PM 86.0 °F 86.6 °F 62.6 °F 45% 30.13 in 10.0 mi Calm Calm - N/A   Clear
6:55 PM 86.0 °F 86.6 °F 62.6 °F 45% 30.13 in 10.0 mi Calm Calm - N/A   Clear
7:15 PM 84.2 °F 85.6 °F 64.4 °F 51% 30.14 in 10.0 mi Calm Calm - N/A   Clear
7:35 PM 82.4 °F 83.9 °F 64.4 °F 54% 30.14 in 10.0 mi Calm Calm - N/A   Clear
7:55 PM 80.6 °F 83.2 °F 68.0 °F 65% 30.14 in 10.0 mi Calm Calm - N/A   Clear
8:15 PM 78.8 °F - 66.2 °F 65% 30.14 in 10.0 mi Calm Calm - N/A   Clear
8:35 PM 77.0 °F - 68.0 °F 74% 30.14 in 10.0 mi Calm Calm - N/A   Clear
8:55 PM 77.0 °F - 68.0 °F 74% 30.15 in 10.0 mi Calm Calm - N/A   Clear
9:15 PM 73.4 °F - 68.0 °F 83% 30.15 in 10.0 mi SW 3.5 mph - N/A   Clear
9:35 PM 73.4 °F - 66.2 °F 78% 30.15 in 10.0 mi Calm Calm - N/A   Scattered Clouds
9:55 PM 73.4 °F - 68.0 °F 83% 30.16 in 10.0 mi Calm Calm - N/A   Scattered Clouds
10:15 PM 71.6 °F - 68.0 °F 88% 30.16 in 10.0 mi Calm Calm - N/A   Scattered Clouds
10:35 PM 71.6 °F - 68.0 °F 88% 30.17 in 10.0 mi Calm Calm - N/A   Scattered Clouds
10:55 PM 69.8 °F - 68.0 °F 94% 30.17 in 10.0 mi Calm Calm - N/A   Scattered Clouds
11:15 PM 69.8 °F - 68.0 °F 94% 30.17 in 10.0 mi Calm Calm - N/A   Clear
11:35 PM 69.8 °F - 68.0 °F 94% 30.17 in 10.0 mi Calm Calm - N/A   Clear
11:55 PM 69.8 °F - 66.2 °F 88% 30.18 in 10.0 mi Calm Calm - N/A   Clear